Stations météo

Publicité
Grenoble/St.Geoirs, France (7486): Température de l'air & dewpoint: 20.06.2017 17:00:00 - 26.06.2017 17:00:00 (CEST)Grenoble/St.Geoirs, France (7486): Température de l'air 5cm: 20.06.2017 17:00:00 - 26.06.2017 17:00:00 (CEST)Grenoble/St.Geoirs, France (7486): Température de l'air -20cm & Température de l'air -100cm: 20.06.2017 17:00:00 - 26.06.2017 17:00:00 (CEST)Grenoble/St.Geoirs, France (7486): Vitesse du vent & gusts: 20.06.2017 17:00:00 - 26.06.2017 17:00:00 (CEST)Grenoble/St.Geoirs, France (7486): Direction du vent: 20.06.2017 17:00:00 - 26.06.2017 17:00:00 (CEST)Grenoble/St.Geoirs, France (7486): reduced air pressure: 20.06.2017 17:00:00 - 26.06.2017 17:00:00 (CEST)Grenoble/St.Geoirs, France (7486): visibility: 20.06.2017 17:00:00 - 26.06.2017 17:00:00 (CEST)Grenoble/St.Geoirs, France (7486): Ensoleillement: 20.06.2017 17:00:00 - 26.06.2017 17:00:00 (CEST)Grenoble/St.Geoirs, France (7486): Quantités de précipitations: 20.06.2017 17:00:00 - 26.06.2017 17:00:00 (CEST)
Date & Time tt [°C] td [°C] tt 5cm [°C] tt -20cm [°C] tt -100cm [°C] ff [km/h] ff [knt] fx [km/h] fx [knt] dd ppp [hPa] vv [km] sd [min] rr [mm]
26.06.2017 17:00:00 26,9 14,3 28,0 21,9 18,9 5 3 21 12 N 1009,4 49 31 0,0
26.06.2017 16:00:00 24,0 14,7 24,4 21,9 18,9 17 9 24 13 E 1010,2 20 0 0,0
26.06.2017 15:00:00 23,9 13,1 23,9 21,8 18,9 4 2 21 11 WNW 1011,4 43 0 0,0
26.06.2017 14:00:00 24,7 12,9 26,6 21,8 18,9 8 5 15 8 SSW 1011,8 58 0 0,0
26.06.2017 13:00:00 23,9 14,3 26,1 21,8 18,9 5 3 16 9 SW 1012,1 56 2 0,0
26.06.2017 12:00:00 23,4 14,1 24,8 21,8 18,9 12 7 21 11 WSW 1012,8 20 4 0,0
26.06.2017 11:00:00 23,8 13,1 22,2 21,9 18,9 13 7 23 12 SE 1012,3 20 23 0,0
26.06.2017 10:00:00 21,2 13,4 23,1 22,0 18,8 4 2 10 5 SW 1012,7 49 7 0,0
26.06.2017 09:00:00 18,2 13,1 17,7 22,1 18,8 0 0 11 6 N 1012,8 42 3 0,0
26.06.2017 08:00:00 16,5 12,6 18,1 22,3 18,9 4 2 10 5 W 1013,3 49 40 0,0
26.06.2017 07:00:00 14,8 11,9 - - - 4 2 8 4 E 1013,4 35 - 0,0
26.06.2017 06:00:00 12,7 10,1 10,3 22,6 18,8 6 3 13 7 E 1014,1 41 0 0,0
26.06.2017 05:00:00 11,9 9,5 9,8 22,7 18,8 9 5 12 7 E 1015,1 36 0 0,0
26.06.2017 04:00:00 14,2 11,0 10,7 22,9 18,8 5 3 12 7 E 1015,3 50 0 0,0
26.06.2017 03:00:00 14,3 11,1 10,7 23,0 18,9 8 4 11 6 E 1015,5 60 0 0,0
26.06.2017 02:00:00 15,1 11,3 11,7 23,1 18,8 8 4 10 5 E 1016,3 58 0 0,0
26.06.2017 01:00:00 16,5 11,2 12,9 23,2 18,8 4 2 14 8 ESE 1016,3 60 0 0,0
26.06.2017 00:00:00 17,2 11,5 13,1 23,3 18,9 5 3 9 5 SE 1016,2 60 0 0,0
25.06.2017 23:00:00 18,9 11,5 14,5 23,3 18,8 8 4 10 6 SE 1015,9 53 0 0,0
25.06.2017 22:00:00 20,7 10,8 15,7 23,3 18,8 3 2 11 6 E 1015,4 32 4 0,0
25.06.2017 21:00:00 24,0 10,6 23,8 23,2 18,8 6 4 18 10 N 1014,5 60 60 0,0
25.06.2017 20:00:00 25,9 9,7 28,1 23,1 18,8 11 6 21 11 N 1014,4 55 60 0,0
25.06.2017 19:00:00 26,6 8,1 30,0 23,0 18,8 15 8 27 14 NNW 1014,5 59 60 0,0
25.06.2017 18:00:00 27,1 8,5 31,4 22,8 18,8 14 8 35 19 NNW 1014,6 42 60 0,0
25.06.2017 17:00:00 27,1 9,4 32,4 22,7 18,8 13 7 29 16 NNE 1015,0 58 60 0,0
25.06.2017 16:00:00 26,9 11,4 33,1 22,6 18,8 10 5 21 11 NNE 1015,4 58 60 0,0
25.06.2017 15:00:00 26,4 11,7 30,6 22,5 18,8 9 5 29 16 NE 1015,9 53 58 0,0
25.06.2017 14:00:00 25,2 11,7 26,6 22,5 18,8 12 7 24 13 NW 1016,6 57 44 0,0
25.06.2017 13:00:00 25,0 12,2 25,0 22,5 18,8 12 6 23 13 N 1017,1 60 55 0,0
25.06.2017 12:00:00 22,9 12,5 23,7 22,5 18,8 16 9 28 15 N 1017,5 58 8 0,0
25.06.2017 11:00:00 21,7 12,0 23,9 22,6 18,7 16 9 27 14 N 1018,0 53 43 0,0
25.06.2017 10:00:00 21,3 12,7 21,5 22,7 18,7 16 9 27 15 N 1018,2 46 22 0,0
25.06.2017 09:00:00 20,2 12,9 20,0 22,8 18,8 16 9 23 12 NNW 1018,0 54 21 0,0
25.06.2017 08:00:00 19,3 15,4 18,9 22,9 18,7 5 3 6 3 SE 1017,6 46 0 0,0
25.06.2017 07:00:00 18,7 14,6 18,0 23,0 18,7 0 0 8 4 N 1017,6 40 0 0,0
25.06.2017 06:00:00 18,8 13,9 17,6 23,2 18,7 5 3 17 9 W 1017,6 55 0 0,0
25.06.2017 05:00:00 19,1 13,3 17,5 23,3 18,7 6 4 13 7 SSE 1017,2 52 0 0,0
25.06.2017 04:00:00 18,6 13,5 16,6 23,4 18,7 3 2 18 10 SSW 1017,6 59 0 0,0
25.06.2017 03:00:00 18,5 14,6 17,4 23,5 18,7 5 3 18 10 ENE 1017,8 39 0 0,0
25.06.2017 02:00:00 18,9 15,6 17,2 23,5 18,7 9 5 22 12 N 1018,1 20 0 0,4
25.06.2017 01:00:00 19,8 15,0 18,1 23,6 18,7 9 5 25 13 NNW 1018,0 20 0 0,0
25.06.2017 00:00:00 21,5 14,6 17,9 23,6 18,7 6 3 35 19 WSW 1017,2 9 0 0,6
24.06.2017 23:00:00 22,9 13,9 20,4 23,7 18,7 16 9 26 14 NNW 1015,7 37 0 0,0
24.06.2017 22:00:00 23,4 15,4 20,9 23,7 18,7 4 2 10 5 ESE 1015,5 36 0 0,0
24.06.2017 21:00:00 24,6 13,5 23,0 23,6 18,7 7 4 16 8 E 1015,1 47 0 0,0
24.06.2017 20:00:00 25,7 12,9 25,1 23,5 18,7 9 5 18 10 NE 1014,8 50 0 0,0
24.06.2017 19:00:00 27,7 12,5 28,1 23,4 18,6 11 6 21 11 NNE 1014,5 55 21 0,0
24.06.2017 18:00:00 28,9 12,7 30,3 23,2 18,6 12 7 24 13 N 1014,8 38 40 0,0
24.06.2017 17:00:00 29,6 14,2 31,3 23,1 18,6 11 6 20 11 N 1014,9 20 43 0,0
24.06.2017 16:00:00 29,3 14,7 35,4 23,0 18,6 9 5 34 19 NNW 1015,4 35 60 0,0
24.06.2017 15:00:00 28,4 15,7 32,0 22,9 18,6 9 5 25 14 NW 1016,4 20 58 0,0
24.06.2017 14:00:00 27,5 16,1 30,1 22,8 18,6 9 5 24 13 NE 1017,2 19 47 0,0
24.06.2017 13:00:00 26,2 15,9 29,1 22,8 18,6 8 4 18 10 NNW 1018,0 24 15 0,0
24.06.2017 12:00:00 25,4 16,3 28,8 22,9 18,6 13 7 24 13 N 1018,4 19 23 0,0
24.06.2017 11:00:00 24,3 15,8 25,8 22,9 18,6 9 5 18 10 NNE 1019,0 19 4 0,0
24.06.2017 10:00:00 23,3 16,1 24,3 23,0 18,6 10 5 19 10 NNE 1019,3 20 0 0,0
24.06.2017 09:00:00 22,8 16,1 23,5 23,1 18,5 9 5 18 10 N 1019,6 20 0 0,0
24.06.2017 08:00:00 22,2 15,5 - - - 5 3 18 10 NNW 1019,5 23 - -
24.06.2017 07:00:00 21,5 16,0 20,3 23,3 18,5 3 2 12 7 SSE 1019,5 20 0 0,0
24.06.2017 06:00:00 21,2 15,5 19,3 23,4 18,5 3 2 13 7 NE 1019,6 19 0 0,0
24.06.2017 05:00:00 20,3 15,9 17,6 23,5 18,5 4 2 7 4 W 1019,8 15 0 0,0
24.06.2017 04:00:00 21,3 16,0 19,1 23,7 18,5 2 1 16 9 ENE 1019,7 20 0 0,0
24.06.2017 03:00:00 22,5 16,1 21,2 23,8 18,5 6 4 18 10 N 1019,8 21 0 0,0
24.06.2017 02:00:00 22,9 16,2 21,2 23,9 18,5 4 2 15 8 W 1019,7 22 0 0,0
24.06.2017 01:00:00 23,1 16,4 21,3 23,9 18,4 5 3 14 8 NNW 1019,6 22 0 0,0
24.06.2017 00:00:00 23,5 16,8 21,6 24,0 18,4 5 3 29 16 N 1019,5 22 0 0,0
23.06.2017 23:00:00 24,1 17,3 22,2 24,0 18,4 7 4 17 9 NNE 1019,0 20 0 0,0
23.06.2017 22:00:00 25,0 17,7 23,7 24,0 18,4 5 3 30 16 SE 1017,9 10 4 0,0
23.06.2017 21:00:00 26,5 18,4 26,3 23,9 18,4 14 8 32 17 NNE 1016,5 18 20 0,0
23.06.2017 20:00:00 27,4 18,9 26,6 23,8 18,4 16 8 34 19 NW 1017,0 18 0 0,0
23.06.2017 19:00:00 29,5 18,6 28,2 23,6 18,4 8 4 10 5 S 1015,7 32 7 0,0
23.06.2017 18:00:00 32,6 15,6 32,9 23,4 18,4 2 1 16 9 N 1015,2 36 5 0,0
23.06.2017 17:00:00 34,7 14,6 37,1 23,2 18,4 11 6 20 11 N 1014,9 50 49 0,0
23.06.2017 16:00:00 34,7 13,5 39,3 23,0 18,4 5 3 17 9 NNW 1015,4 20 57 0,0
23.06.2017 15:00:00 34,2 14,7 41,0 22,8 18,3 10 5 17 9 W 1015,9 37 60 0,0
23.06.2017 14:00:00 33,8 15,3 38,9 22,6 18,3 4 2 14 8 NNE 1016,3 17 60 0,0
23.06.2017 13:00:00 32,2 18,0 37,3 22,6 18,3 5 3 14 7 E 1016,8 19 60 0,0
23.06.2017 12:00:00 30,3 18,7 34,2 22,6 18,3 6 3 16 8 WSW 1017,6 19 53 0,0
23.06.2017 11:00:00 29,0 17,8 33,6 22,7 18,3 5 3 11 6 NNE 1018,0 19 60 0,0
23.06.2017 10:00:00 27,4 18,7 28,0 22,7 18,3 3 2 7 4 E 1018,5 18 43 0,0
23.06.2017 09:00:00 25,8 18,2 25,6 22,8 18,3 5 3 15 8 ESE 1018,4 18 60 0,0
23.06.2017 08:00:00 22,8 18,6 21,5 23,0 18,3 11 6 14 8 E 1018,3 12 60 0,0
23.06.2017 07:00:00 20,0 18,1 17,4 23,1 18,3 8 4 11 6 E 1018,3 8 41 0,0
23.06.2017 06:00:00 18,2 16,5 17,3 23,2 18,3 10 5 11 6 E 1018,5 6 0 0,0
23.06.2017 05:00:00 19,6 17,9 16,9 23,3 18,3 7 4 9 5 E 1018,0 5 0 0,0
23.06.2017 04:00:00 19,8 17,8 17,3 23,4 18,3 6 3 9 5 E 1018,1 9 0 0,0
23.06.2017 03:00:00 20,5 17,5 18,5 23,5 18,3 4 2 8 5 ESE 1018,0 10 0 0,0
23.06.2017 02:00:00 21,4 18,4 18,6 23,6 18,2 4 2 6 3 ESE 1017,8 13 0 0,0
23.06.2017 01:00:00 22,8 19,0 20,4 23,6 18,2 5 3 10 5 NW 1017,8 15 0 0,0
23.06.2017 00:00:00 24,3 19,4 22,0 23,6 18,2 5 3 18 10 NNW 1017,2 17 0 0,0
22.06.2017 23:00:00 26,3 19,4 24,7 23,6 18,2 11 6 23 12 SW 1016,3 16 0 0,0
22.06.2017 22:00:00 26,4 19,0 24,2 23,5 18,2 6 4 24 13 NW 1016,1 11 4 0,0
22.06.2017 21:00:00 27,9 19,4 27,1 23,4 18,2 8 5 19 10 W 1015,4 16 20 0,0
22.06.2017 20:00:00 30,0 17,5 31,1 23,3 18,2 14 7 29 15 SW 1014,9 19 60 0,0
22.06.2017 19:00:00 31,5 16,7 33,9 23,2 18,2 16 9 29 15 SSW 1014,2 20 60 0,0
22.06.2017 18:00:00 32,7 16,9 36,0 23,0 18,2 19 11 29 15 S 1014,1 19 60 0,0
22.06.2017 17:00:00 33,4 16,3 37,4 22,8 18,2 13 7 21 11 SSW 1014,2 34 57 0,0
22.06.2017 16:00:00 33,4 16,7 36,3 22,6 18,2 4 2 18 10 N 1014,4 20 52 0,0
22.06.2017 15:00:00 31,6 17,9 - - - 9 5 22 12 SSW 1014,8 19 - 0,0
22.06.2017 14:00:00 31,9 18,1 36,6 22,2 18,1 9 5 22 12 W 1015,3 19 60 0,0
22.06.2017 13:00:00 30,5 18,6 35,5 22,3 18,2 11 6 23 12 WSW 1015,7 20 60 0,0
22.06.2017 12:00:00 29,6 19,6 34,2 22,2 18,1 11 6 21 12 W 1016,0 19 60 0,0
22.06.2017 11:00:00 28,2 19,7 32,8 22,2 18,1 3 2 11 6 ESE 1016,3 16 60 0,0
22.06.2017 10:00:00 26,6 18,7 31,0 22,3 18,1 3 1 8 4 S 1016,9 18 60 0,0
22.06.2017 09:00:00 24,9 17,6 25,5 22,4 18,1 2 1 8 5 E 1017,0 18 60 0,0
22.06.2017 08:00:00 22,1 16,1 21,0 22,5 18,1 6 3 11 6 E 1017,1 17 60 0,0
22.06.2017 07:00:00 19,3 16,3 16,7 22,6 18,1 9 5 11 6 E 1017,1 17 44 0,0
22.06.2017 06:00:00 18,2 16,4 15,6 22,8 18,1 7 4 9 5 E 1016,9 4,7 0 0,0
22.06.2017 05:00:00 19,0 17,1 16,1 22,9 18,1 4 2 10 5 ESE 1016,4 6 0 0,0
22.06.2017 04:00:00 19,1 16,9 17,0 23,0 18,1 5 3 10 6 E 1016,4 7 0 0,0
22.06.2017 03:00:00 19,6 17,2 17,4 23,1 18,0 8 4 11 6 E 1016,5 9 0 0,0
22.06.2017 02:00:00 19,6 16,8 18,0 23,2 18,0 6 4 11 6 E 1016,6 9 0 0,0
22.06.2017 01:00:00 20,7 17,3 17,8 23,2 18,1 4 2 9 5 E 1016,6 14 0 0,0
22.06.2017 00:00:00 23,7 18,3 19,8 23,3 18,0 5 3 10 6 SSW 1016,0 19 0 0,0
21.06.2017 23:00:00 25,2 17,4 20,3 23,2 18,0 7 4 12 7 SW 1015,9 24 0 0,0
21.06.2017 22:00:00 26,5 17,0 23,0 23,1 18,0 9 5 17 9 W 1015,2 25 0 0,0
21.06.2017 21:00:00 27,5 17,1 25,9 23,1 18,1 5 3 13 7 NNE 1014,3 19 35 0,0
21.06.2017 20:00:00 31,7 15,2 31,9 22,9 18,0 10 6 18 10 WSW 1013,0 38 56 0,0
21.06.2017 19:00:00 32,6 15,1 32,5 22,6 18,0 13 7 23 12 W 1012,6 36 49 0,0
21.06.2017 18:00:00 33,0 14,6 36,5 22,4 18,0 16 9 22 12 SW 1012,2 38 60 0,0
21.06.2017 17:00:00 34,2 14,1 39,3 22,2 18,0 3 1 18 10 W 1012,2 20 60 0,0
21.06.2017 16:00:00 33,5 15,9 38,2 22,0 18,0 5 3 19 10 NNE 1012,4 32 60 0,0
21.06.2017 15:00:00 32,3 15,3 38,5 21,8 18,0 9 5 19 10 W 1013,3 19 60 0,0
21.06.2017 14:00:00 31,0 15,4 36,8 21,6 18,0 9 5 16 8 W 1014,0 19 60 0,0
21.06.2017 13:00:00 29,9 15,6 35,6 21,6 18,0 5 3 16 9 WNW 1014,8 34 60 0,0
21.06.2017 12:00:00 28,9 15,4 33,6 21,5 18,0 3 2 13 7 W 1015,4 18 60 0,0
21.06.2017 11:00:00 26,8 16,1 32,3 21,6 18,0 6 4 13 7 W 1015,7 19 60 0,0
21.06.2017 10:00:00 25,8 16,6 28,9 21,6 17,9 3 2 8 5 E 1015,7 20 60 0,0
21.06.2017 09:00:00 23,5 16,8 25,6 21,7 17,9 5 3 9 5 E 1015,9 19 60 0,0
21.06.2017 08:00:00 21,2 16,6 - - - 4 2 8 4 ESE 1016,4 16 - -
21.06.2017 07:00:00 18,4 15,6 15,2 22,0 18,0 6 3 9 5 NNE 1016,5 15 38 0,0
21.06.2017 06:00:00 17,1 14,6 15,0 22,0 17,9 5 3 13 7 ESE 1016,6 15 0 0,0
21.06.2017 05:00:00 17,6 14,7 15,4 22,1 17,9 9 5 11 6 E 1016,4 16 0 0,0
21.06.2017 04:00:00 18,5 14,6 15,9 22,2 17,9 8 4 10 5 ENE 1016,5 18 0 0,0
21.06.2017 03:00:00 19,9 15,1 17,4 22,3 17,9 6 3 10 5 ESE 1016,8 25 0 0,0
21.06.2017 02:00:00 20,9 15,4 17,6 22,4 17,9 0 0 6 3 N 1016,9 26 0 0,0
21.06.2017 01:00:00 22,0 14,4 18,2 22,5 17,9 5 3 11 6 SW 1016,8 39 0 0,0
21.06.2017 00:00:00 23,4 14,7 21,6 22,5 17,9 4 2 20 11 WNW 1016,9 41 0 0,0
20.06.2017 23:00:00 24,3 14,1 22,1 22,5 17,9 9 5 24 13 W 1016,8 40 0 0,0
20.06.2017 22:00:00 25,1 14,5 22,5 22,4 17,9 8 4 17 9 W 1016,1 42 0 0,0
20.06.2017 21:00:00 26,1 14,2 24,3 22,3 17,9 4 2 11 6 W 1015,6 41 0 0,0
20.06.2017 20:00:00 27,9 14,2 26,8 22,2 17,9 7 4 22 12 W 1015,1 39 38 0,0
20.06.2017 19:00:00 30,4 14,9 33,1 22,0 17,9 12 7 27 14 SW 1014,6 39 60 0,0
20.06.2017 18:00:00 30,8 13,6 33,9 21,8 17,9 15 8 24 13 SW 1014,8 30 60 0,0
20.06.2017 17:00:00 31,4 13,6 35,0 21,6 17,9 14 7 32 17 SW 1015,1 20 60 0,0

tt = Température de l'air
td = dewpoint
tt 5cm = Température de l'air 5cm
tt -20cm = Température de l'air -20cm
tt -100cm = Température de l'air -100cm
ff = Vitesse du vent
fx = gusts
dd = Direction du vent
ppp = reduced air pressure
vv = visibility
sd = Ensoleillement
rr = Quantités de précipitations

stations d'obs. à proximité